Weather History for Moab, UT

Change the Weather History Date:

Monday, July 1, 2013

  Actual Average Record
Temperature  
Mean Temperature 89 °F 78 °F  
Max Temperature 103 °F 94 °F 106 °F (1953)
Min Temperature 75 °F 62 °F 47 °F (1942)
Degree Days  
Heating Degree Days 0 0  
Month to date heating degree days 0 0  
Since 1 June heating degree days 0 17  
Since 1 July heating degree days 0 0  
Cooling Degree Days 24 13  
Month to date cooling degree days 24 13  
Year to date cooling degree days 505 332  
Since 1 June cooling degree days 425 268  
Growing Degree Days 38 (Base 50)    
Moisture  
Dew Point 35 °F    
Average Humidity 17    
Maximum Humidity 26    
Minimum Humidity 8    
Precipitation  
Precipitation 0.00 in 0.03 in 0.23 in (1956)
Month to date precipitation 0.00 0.03  
Year to date precipitation 1.72 3.73  
Sea Level Pressure  
Sea Level Pressure 29.83 in    
Wind  
Wind Speed 7 mph (East)    
Max Wind Speed 17 mph    
Max Gust Speed 22 mph    
Visibility 10 miles    
Events      
T = Trace of Precipitation, MM = Missing Value Source: NWS Daily Summary

Daily Weather History Graph

Daily Weather History Graph

Search for Another Location

Airport:

Trip Planner

Search our weather history database for the weather conditions in past years. The results will help you decide how hot, cold, wet, or windy it might be!

Date:

Astronomy

Jul. 01, 2013 Rise Set
Actual Time 5:58 AM MDT 8:47 PM MDT
Civil Twilight 5:26 AM MDT 9:19 PM MDT
Nautical Twilight 4:46 AM MDT 9:59 PM MDT
Astronomical Twilight 4:00 AM MDT 10:45 PM MDT
Moon 1:27 AM MDT (7/1) 3:08 PM MDT (7/1)
Length of Visible Light 15h 53m
Length of Day
14h 49m
Waning Crescent, 35% of the Moon is Illuminated
Jul 1
Waning Crescent
Jul 8
New
Jul 15
First Quarter
Jul 22
Full
Jul 29
Last Quarter

Hourly Weather History & Observations

Time (MDT) Temp. Dew Point Humidity Pressure Visibility Wind Dir Wind Speed Gust Speed Precip Events Conditions
12:53 AM 77.0 °F 30.9 °F 19% 29.80 in 10.0 mi WSW 5.8 mph - N/A   Clear
1:53 AM 84.0 °F 34.0 °F 17% 29.79 in 10.0 mi ENE 12.7 mph - N/A   Clear
2:53 AM 84.0 °F 34.0 °F 17% 29.79 in 10.0 mi ENE 10.4 mph 18.4 mph N/A   Clear
3:53 AM 80.1 °F 36.0 °F 20% 29.83 in 10.0 mi SSE 9.2 mph - N/A   Clear
4:53 AM 79.0 °F 37.0 °F 22% 29.86 in 10.0 mi SE 8.1 mph - N/A   Clear
5:53 AM 78.1 °F 39.0 °F 25% 29.89 in 10.0 mi East 10.4 mph - N/A   Clear
6:53 AM 78.1 °F 39.9 °F 25% 29.91 in 10.0 mi ESE 3.5 mph - N/A   Clear
7:53 AM 81.0 °F 43.0 °F 26% 29.92 in 10.0 mi East 4.6 mph - N/A   Clear
8:53 AM 84.9 °F 43.0 °F 23% 29.92 in 10.0 mi East 4.6 mph - N/A   Clear
9:53 AM 87.1 °F 42.1 °F 21% 29.91 in 10.0 mi Calm Calm - N/A   Clear
10:53 AM 91.0 °F 41.0 °F 17% 29.91 in 10.0 mi Variable 4.6 mph - N/A   Clear
11:53 AM 93.0 °F 37.9 °F 15% 29.89 in 10.0 mi South 5.8 mph - N/A   Clear
12:53 PM 96.1 °F 37.0 °F 13% 29.87 in 10.0 mi Calm Calm - N/A   Clear
1:53 PM 98.1 °F 36.0 °F 11% 29.84 in 10.0 mi Variable 3.5 mph - N/A   Clear
2:53 PM 100.0 °F 34.0 °F 10% 29.81 in 10.0 mi ENE 4.6 mph - N/A   Clear
3:53 PM 100.0 °F 34.0 °F 10% 29.80 in 10.0 mi North 8.1 mph - N/A   Clear
4:53 PM 100.9 °F 34.0 °F 10% 29.78 in 10.0 mi WSW 4.6 mph - N/A   Clear
5:53 PM 100.0 °F 34.0 °F 10% 29.76 in 10.0 mi Variable 5.8 mph - N/A   Clear
6:53 PM 100.9 °F 33.1 °F 9% 29.74 in 10.0 mi NNE 4.6 mph - N/A   Clear
7:53 PM 98.1 °F 28.9 °F 9% 29.74 in 10.0 mi NNE 5.8 mph - N/A   Clear
8:53 PM 95.0 °F 26.1 °F 9% 29.75 in 10.0 mi ENE 15.0 mph - N/A   Clear
9:53 PM 93.0 °F 30.0 °F 11% 29.78 in 10.0 mi ENE 16.1 mph - N/A   Clear
10:53 PM 88.0 °F 30.9 °F 13% 29.79 in 10.0 mi ENE 6.9 mph - N/A   Clear
11:53 PM 84.0 °F 30.9 °F 15% 29.81 in 10.0 mi NE 9.2 mph - N/A   Clear